Regional Weather Roundup
Issued by NWS Green Bay, WI

Home | Current Version | Previous Version | Text Only | Print | Product List | Glossary On
Versions: 1 2 3 4 5 6 7 8 9 10 11 12 13 14 15 16 17 18 19 20 21 22 23 24 25 26 27 28 29 30 31 32 33 34 35 36 37 38 39 40 41 42 43 44 45 46 47 48 49 50
000
ASUS43 KGRB 190059
RWRGRB

NORTH-CENTRAL AND NORTHEAST WISCONSIN REGIONAL WEATHER ROUNDUP
NATIONAL WEATHER SERVICE GREEN BAY WI
800 PM CDT THU SEP 18 2014

WIZ005-009-010>012-018-019-190200-
NORTH CENTRAL WISCONSIN

CITY           SKY/WX    TMP DP  RH WIND       PRES   REMARKS
IRONWOOD       CLEAR     52  48  87 CALM      30.06R
MANITOWISH WTR NOT AVBL
ARBOR VITAE    NOT AVBL
EAGLE RIVER    NOT AVBL
LAND O LAKES   NOT AVBL
RHINELANDER    CLEAR     50  47  89 SE6       30.11S
PHILLIPS       NOT AVBL
ANTIGO         NOT AVBL
TOMAHAWK       NOT AVBL
MERRILL        NOT AVBL
$$

WIZ013-073-190200-
NORTHEAST WISCONSIN

CITY           SKY/WX    TMP DP  RH WIND       PRES   REMARKS
IRON MOUNTAIN  PTCLDY    50  44  80 SE5       30.13R
MARINETTE      CLEAR     48  45  87 CALM      30.15S
$$

WIZ017-030-035>037-045-190200-
CENTRAL WISCONSIN

CITY           SKY/WX    TMP DP  RH WIND       PRES   REMARKS
MEDFORD        NOT AVBL
WAUSAU         CLEAR     51  48  89 S7        30.11R
MOSINEE        CLEAR     48  48 100 SE3       30.13S
MARSHFIELD     CLEAR     51  48  89 E5        30.11R
WISC RAPIDS    CLEAR     53  49  86 E5        30.13R
STEVENS POINT  NOT AVBL
WAUPACA        NOT AVBL
SHAWANO        NOT AVBL
CLINTONVILLE   NOT AVBL
$$

WIZ038-039-048-051-190200-
FOX VALLEY

CITY           SKY/WX    TMP DP  RH WIND       PRES   REMARKS
NWS GREEN BAY  CLEAR     49  47  93 E6        30.15S
APPLETON       MOCLDY    55  46  71 VRB5      30.14S
OSHKOSH        CLEAR     51  50  96 S5        30.14R
FOND DU LAC    CLEAR     52  49  89 S9        30.15R
$$

WIZ022-050-052-190200-
EAST CENTRAL WISCONSIN

CITY           SKY/WX    TMP DP  RH WIND       PRES   REMARKS
STURGEON BAY   CLEAR     48  43  81 E3        30.17R
MANITOWOC      NOT AVBL
SHEBOYGAN      PTCLDY    48  45  89 CALM      30.17R
$$

LMZ563-521-522-541>543-190200-
LAKESHORE

STATION/POSITION TIME  TEMP    WIND        PRES    VSBY  WAVE
                       AIR SEA DIR/SP/G                  HT/PER
                 (UTC) (F)     (DEG/KT/KT) (MB)    (MI)  (FT/S)
SHEBOYGAN LKSHOR 0000   52 49   30/  8/  9 1021.6R
KEWAUNEE LKSHORE 0000   52     100/  3/  5 1020.2S
TWO RIVERS CG    0000   52 61              1021.2      6   1
NORTHPORT PIER   0000   53     100/  6/  6 1021.0F
N MID LAKE BUOY  0000   52 58   60/  4/  6 1021.5F         0
STURGEON BAY CG  0000   53 55   90/ 46     1022.6      6   2
CHAMBERS ISLAND  0000   51     120/  4/  5 1021.3S
MENOMINEE LKSHOR 0000   54     110/  5/  7 1021.4F
$$



USA.gov is the U.S. government's official web portal to all federal, state and local government web resources and services.